Location: Brantley
(31.5822°N, 86.2569°W)
Time: 01:39:04
(UTC+00:00)

Vanguard 2 - Pass Details

Date: 21 February 2026
Orbit: 553 x 2896 km, 32.9° (Epoch: 10 March)

Event Time Altitude Azimuth Distance (km) Brightness Sun altitude
Rises 08:47:03 0° 230° (SW) 5,497 - -45.8°
Reaches altitude 10° 08:51:28 10° 225° (SW) 4,100 - -44.9°
Maximum altitude 09:00:47 42° 159° (SSE) 1,659 - -43.0°
Exits shadow 09:04:07 26° 105° (ESE) 1,909 9.8 -42.3°
Drops below altitude 10° 09:06:37 10° 89° (E) 2,577 10.8 -41.8°
Sets 09:08:48 0° 81° (E) 3,308 11.6 -41.4°
